When you browse on this site, cookies collect data to enhance your experience and personalize the content and advertising you see.
Visit our Privacy Policy to learn more. By continuing to use the site, you agree to this use of cookies and data.
  • In Schweiz
  • Länderverzeichnis
  • Für 7 Tage
  • Wassertemperatur
  • Satellitenkarten
  • Wetterkarte
  • Widgets
  • user-avatar
    Anmelden

    Stündliche Wetter Oran

    Heute, 27 Juni, Donnerstag

    Zeit Temperatur Niederschläge Wind Luftdruck Luftfeuchtigkeit
    00:00 +24°C° 0 mm 3 m/S 751 mmHg 90%
    01:00 +24°C° 0 mm 3 m/S 751 mmHg 88%
    02:00 +24°C° 0 mm 3 m/S 750 mmHg 87%
    03:00 +24°C° 0 mm 3 m/S 750 mmHg 85%
    04:00 +24°C° 0 mm 3 m/S 751 mmHg 84%
    05:00 +24°C° 0 mm 3 m/S 751 mmHg 83%
    06:00 +24°C° 0 mm 3 m/S 751 mmHg 82%
    07:00 +26°C° 0 mm 2 m/S 751 mmHg 74%
    08:00 +27°C° 0 mm 2 m/S 751 mmHg 66%
    09:00 +29°C° 0 mm 2 m/S 751 mmHg 58%
    10:00 +30°C° 0 mm 2 m/S 751 mmHg 54%
    11:00 +33°C° 0 mm 3 m/S 751 mmHg 49%
    12:00 +34°C° 0 mm 3 m/S 751 mmHg 44%
    13:00 +34°C° 0 mm 3 m/S 751 mmHg 44%
    14:00 +34°C° 0 mm 3 m/S 750 mmHg 43%
    15:00 +35°C° 0 mm 3 m/S 750 mmHg 43%
    16:00 +34°C° 0 mm 3 m/S 749 mmHg 46%
    17:00 +33°C° 0 mm 3 m/S 749 mmHg 49%
    18:00 +31°C° 0 mm 3 m/S 749 mmHg 52%
    19:00 +29°C° 0 mm 3 m/S 750 mmHg 63%
    20:00 +27°C° 0 mm 3 m/S 750 mmHg 74%
    21:00 +25°C° 0 mm 3 m/S 750 mmHg 85%
    22:00 +25°C° 0 mm 3 m/S 750 mmHg 86%
    23:00 +25°C° 0 mm 4 m/S 750 mmHg 86%

    Morgen, 28 Juni, Freitag

    Zeit Temperatur Niederschläge Wind Luftdruck Luftfeuchtigkeit
    00:00 +23°C° 0 mm 4 m/S 750 mmHg 87%
    01:00 +25°C° 0 mm 4 m/S 750 mmHg 86%
    02:00 +25°C° 0 mm 4 m/S 750 mmHg 84%
    03:00 +25°C° 0 mm 4 m/S 750 mmHg 83%
    04:00 +24°C° 0 mm 3 m/S 750 mmHg 84%
    05:00 +24°C° 0 mm 3 m/S 750 mmHg 84%
    06:00 +24°C° 0 mm 3 m/S 750 mmHg 84%
    07:00 +26°C° 0 mm 3 m/S 750 mmHg 75%
    08:00 +27°C° 0 mm 2 m/S 750 mmHg 67%
    09:00 +29°C° 0 mm 2 m/S 750 mmHg 58%
    10:00 +31°C° 0 mm 2 m/S 750 mmHg 52%
    11:00 +34°C° 0 mm 2 m/S 750 mmHg 45%
    12:00 +36°C° 0 mm 2 m/S 750 mmHg 39%
    13:00 +35°C° 0 mm 4 m/S 749 mmHg 39%
    14:00 +35°C° 0 mm 5 m/S 749 mmHg 39%
    15:00 +35°C° 0 mm 6 m/S 749 mmHg 40%
    16:00 +34°C° 0 mm 6 m/S 749 mmHg 42%
    17:00 +33°C° 0 mm 6 m/S 748 mmHg 45%
    18:00 +32°C° 0 mm 6 m/S 748 mmHg 48%
    19:00 +29°C° 0 mm 5 m/S 749 mmHg 53%
    20:00 +28°C° 0 mm 3 m/S 749 mmHg 58%
    21:00 +26°C° 0 mm 2 m/S 749 mmHg 63%
    22:00 +26°C° 0 mm 2 m/S 749 mmHg 67%
    23:00 +25°C° 0 mm 2 m/S 749 mmHg 71%

    übermorgen, 29 Juni, Samstag

    Zeit Temperatur Niederschläge Wind Luftdruck Luftfeuchtigkeit
    00:00 +24°C° 0 mm 2 m/S 749 mmHg 75%
    01:00 +24°C° 0 mm 2 m/S 749 mmHg 76%
    02:00 +24°C° 0 mm 2 m/S 749 mmHg 77%
    03:00 +24°C° 0 mm 2 m/S 748 mmHg 78%
    04:00 +24°C° 0 mm 2 m/S 749 mmHg 81%
    05:00 +24°C° 0 mm 2 m/S 749 mmHg 83%
    06:00 +24°C° 0 mm 2 m/S 749 mmHg 86%
    07:00 +26°C° 0 mm 2 m/S 749 mmHg 76%
    08:00 +27°C° 0 mm 2 m/S 749 mmHg 65%
    09:00 +29°C° 0 mm 1 m/S 750 mmHg 55%
    10:00 +31°C° 0 mm 2 m/S 749 mmHg 49%
    11:00 +34°C° 0 mm 3 m/S 749 mmHg 43%
    12:00 +37°C° 0 mm 3 m/S 749 mmHg 37%
    13:00 +37°C° 0 mm 4 m/S 749 mmHg 36%
    14:00 +37°C° 0 mm 4 m/S 749 mmHg 35%
    15:00 +37°C° 0 mm 5 m/S 748 mmHg 34%
    16:00 +36°C° 0 mm 5 m/S 748 mmHg 36%
    17:00 +35°C° 0 mm 4 m/S 748 mmHg 37%
    18:00 +34°C° 0 mm 4 m/S 748 mmHg 39%
    19:00 +32°C° 0 mm 4 m/S 749 mmHg 42%
    20:00 +30°C° 0 mm 4 m/S 749 mmHg 45%
    21:00 +29°C° 0 mm 4 m/S 749 mmHg 48%
    22:00 +28°C° 0 mm 3 m/S 749 mmHg 53%
    23:00 +27°C° 0 mm 3 m/S 749 mmHg 58%

    30 Juni, Sonntag

    Zeit Temperatur Niederschläge Wind Luftdruck Luftfeuchtigkeit
    00:00 +25°C° 0 mm 2 m/S 749 mmHg 63%
    01:00 +25°C° 0 mm 2 m/S 749 mmHg 70%
    02:00 +24°C° 0 mm 2 m/S 749 mmHg 76%
    03:00 +24°C° 0 mm 2 m/S 749 mmHg 82%
    04:00 +24°C° 0 mm 2 m/S 750 mmHg 83%
    05:00 +24°C° 0 mm 2 m/S 750 mmHg 84%
    06:00 +24°C° 0 mm 2 m/S 750 mmHg 85%
    07:00 +26°C° 0 mm 2 m/S 751 mmHg 75%
    08:00 +28°C° 0 mm 2 m/S 751 mmHg 64%
    09:00 +30°C° 0 mm 2 m/S 751 mmHg 53%
    10:00 +31°C° 0 mm 3 m/S 751 mmHg 48%
    11:00 +34°C° 0 mm 3 m/S 751 mmHg 42%
    12:00 +36°C° 0 mm 4 m/S 751 mmHg 37%
    13:00 +36°C° 0 mm 4 m/S 751 mmHg 36%
    14:00 +36°C° 0 mm 5 m/S 750 mmHg 35%
    15:00 +36°C° 0 mm 5 m/S 750 mmHg 35%
    16:00 +35°C° 0 mm 4 m/S 750 mmHg 39%
    17:00 +33°C° 0 mm 3 m/S 750 mmHg 43%
    18:00 +31°C° 0 mm 3 m/S 750 mmHg 47%
    19:00 +29°C° 0 mm 3 m/S 751 mmHg 57%
    20:00 +27°C° 0 mm 4 m/S 751 mmHg 68%
    21:00 +25°C° 0 mm 4 m/S 752 mmHg 79%
    22:00 +25°C° 0 mm 3 m/S 752 mmHg 81%
    23:00 +24°C° 0 mm 2 m/S 752 mmHg 82%

    1 Juli, Montag

    Zeit Temperatur Niederschläge Wind Luftdruck Luftfeuchtigkeit
    00:00 +24°C° 0 mm 1 m/S 752 mmHg 83%
    01:00 +24°C° 0 mm 1 m/S 751 mmHg 82%
    02:00 +24°C° 0 mm 1 m/S 751 mmHg 81%
    03:00 +24°C° 0 mm 1 m/S 751 mmHg 81%
    04:00 +24°C° 0 mm 2 m/S 751 mmHg 82%
    05:00 +24°C° 0 mm 2 m/S 751 mmHg 83%
    06:00 +24°C° 0 mm 3 m/S 751 mmHg 84%
    07:00 +25°C° 0 mm 3 m/S 752 mmHg 75%
    08:00 +27°C° 0 mm 3 m/S 752 mmHg 67%
    09:00 +29°C° 0 mm 2 m/S 752 mmHg 58%
    10:00 +30°C° 0 mm 3 m/S 752 mmHg 54%
    11:00 +31°C° 0 mm 3 m/S 752 mmHg 51%
    12:00 +33°C° 0 mm 4 m/S 752 mmHg 48%
    13:00 +33°C° 0 mm 4 m/S 751 mmHg 48%
    14:00 +33°C° 0 mm 3 m/S 751 mmHg 49%
    15:00 +33°C° 0 mm 3 m/S 751 mmHg 49%
    16:00 +31°C° 0 mm 3 m/S 750 mmHg 50%
    17:00 +31°C° 0 mm 2 m/S 750 mmHg 52%
    18:00 +30°C° 0 mm 2 m/S 750 mmHg 53%
    19:00 +29°C° 0 mm 2 m/S 750 mmHg 60%
    20:00 +27°C° 0 mm 1 m/S 750 mmHg 66%
    21:00 +26°C° 0 mm 1 m/S 751 mmHg 73%
    22:00 +25°C° 0 mm 1 m/S 751 mmHg 76%
    23:00 +25°C° 0 mm 2 m/S 751 mmHg 80%

    2 Juli, Dienstag

    Zeit Temperatur Niederschläge Wind Luftdruck Luftfeuchtigkeit
    00:00 +24°C° 0 mm 2 m/S 751 mmHg 84%
    01:00 +24°C° 0 mm 2 m/S 750 mmHg 85%
    02:00 +23°C° 0 mm 1 m/S 750 mmHg 87%
    03:00 +23°C° 0 mm 1 m/S 750 mmHg 89%
    04:00 +23°C° 0 mm 1 m/S 750 mmHg 87%
    05:00 +21°C° 0 mm 0 m/S 750 mmHg 85%
    06:00 +22°C° 0 mm 0 m/S 750 mmHg 83%
    07:00 +23°C° 0 mm 0 m/S 750 mmHg 74%
    08:00 +27°C° 0 mm 1 m/S 750 mmHg 66%
    09:00 +28°C° 0 mm 1 m/S 750 mmHg 57%
    10:00 +30°C° 0 mm 2 m/S 750 mmHg 53%
    11:00 +31°C° 0 mm 2 m/S 750 mmHg 48%
    12:00 +33°C° 0 mm 3 m/S 750 mmHg 44%
    13:00 +33°C° 0 mm 3 m/S 749 mmHg 45%
    14:00 +33°C° 0 mm 4 m/S 749 mmHg 46%
    15:00 +33°C° 0 mm 4 m/S 749 mmHg 47%
    16:00 +32°C° 0 mm 4 m/S 748 mmHg 49%
    17:00 +30°C° 0 mm 3 m/S 748 mmHg 51%
    18:00 +29°C° 0 mm 3 m/S 748 mmHg 53%
    19:00 +28°C° 0 mm 2 m/S 748 mmHg 59%
    20:00 +27°C° 0 mm 2 m/S 748 mmHg 64%
    21:00 +26°C° 0 mm 1 m/S 749 mmHg 70%
    22:00 +26°C° 0 mm 1 m/S 749 mmHg 72%
    23:00 +25°C° 0 mm 1 m/S 749 mmHg 74%
    Mehr zeigen